Weather in Calarasi

Romania     46°29′07″N   23°51′20″E
temp.,
°C
wind,
m/s
gust,
m/s
humid.,
%
clouds,
%
prec.,
mm/h
press.,
hPa
HPBL,
m
22 may, sun
sun2200:00+15w367478 0.0 1014163
03:00+12w3371100 0.0 101442
06:00+11wnw337366 0.0 101440
09:00+15nnw575662 0.0 1013713
12:00+17n665637 0.0 10131288
15:00+17n665963 0.2 10111280
18:00+17n686322 0.6 10111130
21:00+12nw23797 0.7 101125
23 may, mon
mon2300:00+12w2271100 0.0 101221
03:00+11nnw227497 0.0 101217
06:00+10w2274100 0.0 101223
09:00+15wnw24565 0.0 1011827
12:00+17nnw56477 0.0 10111806
15:00+19n664731 0.0 10101737
18:00+17n675534 0.0 10101223
21:00+12nnw22745 0.0 101113
24 may, tue
tue2400:00+10wnw117699 0.0 101210
03:00+8wnw11815 0.0 101210
06:00+7nw11845 0.0 101210
09:00+13se2268100 0.0 1013358
12:00+17sse3360100 0.0 1012854
15:00+17ssw2368100 0.1 1011465
18:00+16nnw2270100 0.1 1012152
21:00+14nne0173100 0.1 101210
25 may, wed
wed2500:00+12sw118298 0.2 101311
03:00+11sw008132 0.2 101310
06:00+11n118788 0.1 101410
09:00+16e11745 0.2 1014267
12:00+21se22635 0.0 1014703
15:00+24ese22584 0.4 1013902
18:00+24nne226020 0.8 1012674
21:00+19w1176100 0.8 101211
26 may, thu
thu2600:00+17wsw1183100 0.5 101412
03:00+15w61590100 4.8 1016516
06:00+14ssw2288100 1.0 101524
09:00+18ne227626 1.0 1016277
12:00+22ne226514 0.4 1016914
15:00+23nnw685390 1.3 1017943
18:00+22nnw585662 0.0 1017910
21:00+18nw37574 0.0 1018228